Flag for Italy Weather past 2 weeks in Varese, Italy

Now
32 °F

Chilly.


Feels Like: 32 °F
Forecast: 20 / 45 °F
Wind: 1 mph from Southwest

Location: Stabio

Current Time: Jan 26, 2015 at 8:09:43 PM

Latest Report: Jan 26, 2015 at 7:00 PM


Visibility: N/A

Pressure: 30.21 "Hg

Humidity: 56%

Dew point: 18 °F

Location of VareseLocation

Historic Weather in Varese — Graph

°F

Varese temperature yesterday

Maximum temperature yesterday: 48 °F (at 12:00 PM)
Minimum temperature yesterday: 41 °F (at 9:00 PM)
Average temperature yesterday: 45 °F

Past Weeks' High & Low Weather Summary

 TemperatureHumidityPressure
High56 °F (Jan 23, 4:00 PM)100% (Jan 14, 11:00 PM)30.44 "Hg (Jan 14, 11:00 PM)
Low25 °F (Jan 26, 7:00 AM)17% (Jan 11, 6:00 PM)29.78 "Hg (Jan 24, 6:00 PM)
Average38 °F76%30.06 "Hg
* Reported Jan 11 6:00 PM — Jan 26 6:00 PM, Varese, Weather by CustomWeather, © 2014

Note: Actual official high and low records may vary slightly from our data, if they occured in-between our weather recording intervals... More about our weather records

Advertising

Varese weather history for previous 24 hours

 ConditionsComfort  
Time TempWeatherWind HumidityBarometerVisibility
6:00 PM
Jan 26
35 °FChilly.1 mph52%30.20 "HgN/A
5:00 PM40 °FQuite cool.5 mph39%30.18 "HgN/A
4:00 PM42 °FQuite cool.5 mph35%30.18 "HgN/A
3:00 PM43 °FQuite cool.5 mph34%30.19 "HgN/A
2:00 PM44 °FQuite cool.6 mph32%30.22 "HgN/A
1:00 PM44 °FQuite cool.7 mph36%30.23 "HgN/A
12:00 PM43 °FQuite cool.2 mph42%30.26 "HgN/A
11:00 AM39 °FChilly.1 mph43%30.29 "HgN/A
10:00 AM32 °FChilly.1 mph68%30.31 "HgN/A
9:00 AM26 °FChilly.1 mph71%30.33 "HgN/A
8:00 AM25 °FChilly.2 mph69%30.33 "HgN/A
7:00 AM25 °FCold.2 mph72%30.31 "HgN/A
6:00 AM27 °FChilly.2 mph53%30.29 "HgN/A
5:00 AM27 °FChilly.1 mph53%30.28 "HgN/A
3:00 AM29 °FChilly.2 mph44%30.26 "HgN/A
2:00 AM31 °FChilly.1 mph39%30.25 "HgN/A
1:00 AM37 °FChilly.3 mph33%30.23 "HgN/A
12:00 AM41 °FQuite cool.6 mph23%30.22 "HgN/A
11:00 PM
Jan 25
42 °FQuite cool.3 mph21%30.21 "HgN/A
9:00 PM41 °FQuite cool.6 mph21%30.19 "HgN/A
8:00 PM42 °FQuite cool.7 mph19%30.17 "HgN/A
Weather by CustomWeather, © 2014

See weather overviewHow to use our weather pages